Location: Ferchesar
(52.6477°N, 12.4298°E)
Time: 21:52:51
(UTC+02:00)

A-11 Canister half - Pass Details

Date: 09 March 2021
Orbit: 1525 x 1683 km, 47.3° (Epoch: 11 April)

Event Time Altitude Azimuth Distance (km) Brightness Sun altitude
Exits shadow 01:54:39 24° 123° (ESE) 2,834 10.3 -38.1°
Drops below altitude 10° 02:00:29 10° 86° (E) 3,769 11.4 -37.6°
Sets 02:04:11 0° 74° (ENE) 4,734 12.1 -37.3°
